{"data":{"norad_id":57747,"epoch":"2026-05-24T22:11:46.854240Z","epoch_age_seconds":91936,"freshness":"FRESH","line1":"1 57747U 23131R   26144.92484785  .00000772  00000+0  37560-4 0  9994","line2":"2 57747  43.0027 102.0834 0001046 267.4479  92.6253 15.27576726151570","mean_motion":15.27576726,"eccentricity":0.0001046,"inclination_deg":43.0027,"raan_deg":102.0834,"arg_perigee_deg":267.4479,"mean_anomaly_deg":92.6253,"bstar":3.756e-5,"rev_number":15157,"period_min":94.266950752168,"perigee_km":482.34121849988,"apogee_km":483.77658068207,"semimajor_km":6861.195899591,"source":"CELESTRAK","updated_at":"2026-05-25T13:38:18.401913Z"}}